Location: Cosy Dell
(34.2789°N, 117.4537°W)
Time: 12:20:19
(UTC+00:00)

Meteor 1-11 Rocket - Pass Details

Date: 14 July 2020
Orbit: 832 x 915 km, 81.2° (Epoch: 08 August)

Event Time Altitude Azimuth Distance (km) Brightness Sun altitude
Exits shadow 10:36:49 38° 266° (W) 1,256 4.2 -22.3°
Maximum altitude 10:37:26 39° 283° (WNW) 1,229 4.3 -22.2°
Drops below altitude 10° 10:42:35 10° 351° (N) 2,444 6.6 -21.5°
Sets 10:45:10 0° 360° (N) 3,383 7.6 -21.2°
